| time (UTC) | temp C | wind direction | speed KPH | gust KPH | rain 1hr cm | rain 24hr cm | rain mn cm | humidity % | barometer mb |
| 20260505151509 | 11 | 131 | 0.0 | 1.6 | 0.00 | 0.00 | 0.00 | 91 | 1017.0 |
| 20260505124516 | 9 | 237 | 0.0 | 3.2 | 0.00 | 0.00 | 0.00 | 94 | 1016.0 |
| 20260505123021 | 9 | 237 | 0.0 | 3.2 | 0.00 | 0.00 | 0.00 | 94 | 1015.9 |
| 20260505121522 | 9 | 237 | 0.0 | 3.2 | 0.00 | 0.00 | 0.00 | 94 | 1016.1 |
| 20260505120007 | 8 | 242 | 0.0 | 4.8 | 0.00 | 0.00 | 0.00 | 94 | 1016.0 |
| 20260505114514 | 8 | 225 | 0.0 | 3.2 | 0.00 | 0.00 | 0.00 | 95 | 1016.0 |
| 20260505113015 | 8 | 248 | 0.0 | 3.2 | 0.00 | 0.00 | 0.00 | 95 | 1016.0 |
| 20260505111532 | 7 | 244 | 0.0 | 3.2 | 0.00 | 0.00 | 0.00 | 95 | 1016.0 |
| 20260505101521 | 7 | 269 | 0.0 | 3.2 | 0.00 | 0.00 | 0.00 | 93 | 1015.3 |
| 20260505100028 | 7 | 269 | 0.0 | 0.0 | 0.00 | 0.00 | 0.00 | 92 | 1015.3 |
| 20260505094522 | 7 | 269 | 0.0 | 0.0 | 0.00 | 0.00 | 0.00 | 92 | 1015.3 |
| 20260505093012 | 8 | 269 | 0.0 | 3.2 | 0.00 | 0.00 | 0.00 | 92 | 1015.2 |
| 20260505091518 | 8 | 269 | 0.0 | 3.2 | 0.00 | 0.00 | 0.00 | 91 | 1015.2 |
| 20260505090024 | 8 | 269 | 0.0 | 3.2 | 0.00 | 0.00 | 0.00 | 92 | 1015.0 |
| 20260505084526 | 8 | 269 | 0.0 | 0.0 | 0.00 | 0.00 | 0.00 | 91 | 1015.0 |
| 20260505083024 | 8 | 269 | 0.0 | 3.2 | 0.00 | 0.00 | 0.00 | 91 | 1014.8 |
| 20260505081514 | 9 | 269 | 0.0 | 3.2 | 0.00 | 0.00 | 0.00 | 91 | 1014.6 |
| 20260505080020 | 9 | 173 | 0.0 | 3.2 | 0.00 | 0.00 | 0.00 | 90 | 1014.5 |
| 20260505074523 | 10 | 173 | 0.0 | 3.2 | 0.00 | 0.00 | 0.00 | 90 | 1014.3 |
| 20260505073041 | 10 | 156 | 0.0 | 3.2 | 0.00 | 0.00 | 0.00 | 89 | 1014.3 |
| 20260505071543 | 10 | 199 | 0.0 | 3.2 | 0.00 | 0.00 | 0.00 | 89 | 1014.1 |
| 20260505070018 | 10 | 149 | 1.6 | 3.2 | 0.00 | 0.00 | 0.00 | 89 | 1013.9 |
| 20260505064525 | 10 | 150 | 0.0 | 3.2 | 0.00 | 0.00 | 0.00 | 88 | 1013.9 |
| 20260505063026 | 11 | 143 | 0.0 | 9.7 | 0.00 | 0.00 | 0.00 | 87 | 1013.7 |
| 20260505061511 | 11 | 101 | 1.6 | 9.7 | 0.00 | 0.00 | 0.00 | 87 | 1013.7 |
| 20260505060015 | 11 | 159 | 3.2 | 6.4 | 0.00 | 0.00 | 0.00 | 87 | 1013.8 |
| 20260505054532 | 11 | 50 | 0.0 | 3.2 | 0.00 | 0.00 | 0.00 | 86 | 1013.7 |
| 20260505053034 | 12 | 130 | 0.0 | 9.7 | 0.00 | 0.00 | 0.00 | 85 | 1013.5 |
| 20260505051509 | 12 | 113 | 3.2 | 11.3 | 0.00 | 0.00 | 0.00 | 84 | 1013.4 |
| 20260505041526 | 13 | 58 | 0.0 | 3.2 | 0.00 | 0.00 | 0.00 | 80 | 1012.6 |
| 20260505040008 | 14 | 70 | 0.0 | 6.4 | 0.00 | 0.00 | 0.00 | 78 | 1012.2 |
| 20260505034515 | 15 | 83 | 0.0 | 4.8 | 0.00 | 0.00 | 0.00 | 77 | 1012.0 |
| 20260505033025 | 15 | 74 | 0.0 | 4.8 | 0.00 | 0.00 | 0.00 | 75 | 1011.8 |
| 20260505031522 | 16 | 60 | 1.6 | 3.2 | 0.00 | 0.00 | 0.00 | 74 | 1011.6 |
| 20260505030028 | 17 | 60 | 1.6 | 4.8 | 0.00 | 0.00 | 0.00 | 71 | 1011.4 |
| 20260505024512 | 18 | 129 | 1.6 | 9.7 | 0.00 | 0.00 | 0.00 | 68 | 1011.2 |
| 20260505023019 | 18 | 159 | 4.8 | 14.5 | 0.00 | 0.00 | 0.00 | 66 | 1011.2 |
| 20260505021525 | 20 | 146 | 1.6 | 16.1 | 0.00 | 0.00 | 0.00 | 64 | 1010.9 |
| 20260505020025 | 20 | 148 | 3.2 | 16.1 | 0.00 | 0.00 | 0.00 | 63 | 1010.9 |
| 20260505014508 | 21 | 130 | 4.8 | 14.5 | 0.00 | 0.00 | 0.00 | 61 | 1011.0 |
| 20260505013014 | 21 | 116 | 3.2 | 11.3 | 0.00 | 0.00 | 0.00 | 61 | 1011.0 |
| 20260505011522 | 21 | 135 | 6.4 | 19.3 | 0.00 | 0.00 | 0.00 | 60 | 1011.1 |
| 20260505010024 | 22 | 121 | 6.4 | 16.1 | 0.00 | 0.00 | 0.00 | 58 | 1011.1 |
| 20260505004526 | 22 | 114 | 3.2 | 11.3 | 0.00 | 0.00 | 0.00 | 58 | 1011.2 |
| 20260505003015 | 22 | 55 | 6.4 | 14.5 | 0.00 | 0.00 | 0.00 | 59 | 1011.3 |
| 20260505001521 | 22 | 150 | 6.4 | 17.7 | 0.00 | 0.00 | 0.00 | 57 | 1011.3 |
| 20260505000023 | 23 | 157 | 4.8 | 11.3 | 0.00 | 0.00 | 0.00 | 59 | 1011.5 |
| 20260504234525 | 22 | 147 | 3.2 | 17.7 | 0.00 | 0.00 | 0.00 | 61 | 1011.6 |
| 20260504233028 | 23 | 119 | 3.2 | 12.9 | 0.00 | 0.00 | 0.00 | 58 | 1011.7 |
| 20260504231517 | 23 | 57 | 3.2 | 17.7 | 0.00 | 0.00 | 0.00 | 60 | 1011.9 |
| 20260504230027 | 22 | 80 | 1.6 | 17.7 | 0.00 | 0.00 | 0.00 | 61 | 1011.9 |
| 20260504224526 | 22 | 142 | 3.2 | 12.9 | 0.00 | 0.00 | 0.00 | 64 | 1012.1 |
| 20260504223028 | 22 | 159 | 3.2 | 9.7 | 0.00 | 0.00 | 0.00 | 65 | 1012.3 |
| 20260504221522 | 22 | 55 | 4.8 | 9.7 | 0.00 | 0.00 | 0.00 | 65 | 1012.5 |
| 20260504220023 | 21 | 140 | 3.2 | 16.1 | 0.00 | 0.00 | 0.00 | 65 | 1012.7 |
| 20260504214526 | 21 | 30 | 1.6 | 16.1 | 0.00 | 0.00 | 0.00 | 65 | 1012.9 |
| 20260504213024 | 21 | 60 | 3.2 | 11.3 | 0.00 | 0.00 | 0.00 | 66 | 1012.9 |
| 20260504211528 | 20 | 115 | 1.6 | 16.1 | 0.00 | 0.00 | 0.00 | 66 | 1013.1 |
| 20260504210018 | 21 | 153 | 3.2 | 9.7 | 0.00 | 0.00 | 0.00 | 66 | 1013.3 |
| 20260504204504 | 21 | 55 | 3.2 | 9.7 | 0.00 | 0.00 | 0.00 | 66 | 1013.5 |
| 20260504203011 | 20 | 190 | 3.2 | 9.7 | 0.00 | 0.00 | 0.00 | 66 | 1013.5 |
| 20260504201513 | 20 | 65 | 4.8 | 9.7 | 0.00 | 0.00 | 0.00 | 67 | 1013.7 |
| 20260504200032 | 19 | 138 | 1.6 | 9.7 | 0.00 | 0.00 | 0.00 | 68 | 1013.8 |
| 20260504194522 | 19 | 70 | 3.2 | 8.0 | 0.00 | 0.00 | 0.00 | 68 | 1013.9 |
| 20260504193008 | 18 | 46 | 3.2 | 11.3 | 0.00 | 0.00 | 0.00 | 70 | 1014.0 |
| 20260504191520 | 18 | 65 | 1.6 | 9.7 | 0.00 | 0.00 | 0.00 | 72 | 1014.3 |
| 20260504190016 | 17 | 28 | 4.8 | 9.7 | 0.00 | 0.00 | 0.00 | 71 | 1014.3 |
| 20260504184518 | 17 | 89 | 1.6 | 11.3 | 0.00 | 0.00 | 0.00 | 74 | 1014.4 |
| 20260504183037 | 17 | 144 | 3.2 | 8.0 | 0.00 | 0.00 | 0.00 | 72 | 1014.6 |
| 20260504181513 | 16 | 44 | 1.6 | 9.7 | 0.00 | 0.00 | 0.00 | 76 | 1014.6 |
| 20260504180017 | 16 | 76 | 0.0 | 6.4 | 0.00 | 0.00 | 0.00 | 77 | 1014.5 |
| 20260504174522 | 15 | 144 | 1.6 | 6.4 | 0.00 | 0.00 | 0.00 | 78 | 1014.4 |
| 20260504173026 | 15 | 137 | 4.8 | 9.7 | 0.00 | 0.00 | 0.00 | 78 | 1014.6 |
| 20260504171508 | 15 | 67 | 1.6 | 8.0 | 0.00 | 0.00 | 0.00 | 81 | 1014.5 |